Weather Roundup
Issued by NWS Chicago, IL

Home | Current Version | Previous Version | Text Only | Print | Product List | Glossary On
Versions: 1 2 3 4 5 6 7 8 9 10 11 12 13 14 15 16 17 18 19 20 21 22 23 24 25 26 27 28 29 30 31 32 33 34 35 36 37 38 39 40 41 42 43 44 45 46 47 48 49 50
000
NZUS59 KLOT 052308
HRRLOT

CHICAGO AREA WEATHER ROUNDUP
NATIONAL WEATHER SERVICE CHICAGO/ROMEOVILLE IL
500 PM CST FRI FEB 05 2016

NOTE: "FAIR" INDICATES FEW OR NO CLOUDS BELOW 12,000 FEET WITH NO
SIGNIFICANT WEATHER AND/OR OBSTRUCTIONS TO VISIBILITY.

* THESE STATIONS ARE NOT UNDER NWS QUALITY CONTROL. THEY ALSO MAY NOT
  REPORT WEATHER SUCH AS PRECIPITATION OR FOG.

ILZ005-006-012>014-019>023-060000-
NORTHEAST ILLINOIS

CITY           SKY/WX    TMP DP  RH WIND       PRES   REMARKS
OHARE          CLOUDY    31  20  63 W12       30.36R WCI  22
MIDWAY         CLOUDY    33  19  56 W12       30.36R WCI  24
AURORA         CLOUDY    30  22  72 W5        30.36F WCI  25
LANSING*       CLOUDY    30  23  74 W8        30.37S WCI  23
JOLIET*        CLOUDY    31  23  72 W5        30.38F WCI  26
WAUKEGAN       PTCLDY    30  18  60 W5        30.34R WCI  25
DUPAGE AIRPORT CLOUDY    30  20  66 W8        30.36R WCI  22
WHEELING       MOCLDY    31  18  58 W8        30.37R WCI  23
KANKAKEE*      CLOUDY    29  23  75 W5        30.39R WCI  24
MORRIS*        CLOUDY    30  23  76 W5        30.35S WCI  25
LEWIS AIRPORT* CLOUDY    29  22  74 NW7       30.37S WCI  22
$$

WIZ051-052-058>065-066-070>072-060000-
SOUTHEAST WISCONSIN

CITY           SKY/WX    TMP DP  RH WIND       PRES   REMARKS
MILWAUKEE      CLOUDY    30  13  49 W5        30.34R WCI  25
KENOSHA*       CLOUDY    30  17  58 W8        30.34R WCI  22
RACINE*        CLOUDY    31  14  49 W6        30.35S WCI  25
BURLINGTON     MOCLDY    28  17  66 W6        30.34S WCI  21
WAUKESHA       CLEAR     27  14  59 W7        30.34R WCI  19
WEST BEND      CLOUDY    27  16  63 CALM      30.32R
$$

INZ001>003-010>013-019-020-060000-
NORTHWEST INDIANA

CITY           SKY/WX    TMP DP  RH WIND       PRES   REMARKS
GARY*          CLOUDY    34  21  60 W10       30.37R WCI  26
MICHIGAN CITY* NOT AVBL
RENSSELAER*    NOT AVBL
VALPARAISO     MOCLDY    31  23  72 NW3       30.36R
$$

LMZ740>746-060000-
SOUTHERN LAKE MICHIGAN

STATION/POSITION TIME  SKY/WX   TEMP WIND        PRES    VSBY
                                AIR  DIR/SP/G
                 (UTC)          (F)  (DEG/KT/KT) (MB)    (MI)
HARRISON CRIB    2200            31   20/  5/  6   N/A
BURNHAM HARBOR   2300            30   50/  1/  4   N/A
CALUMET HARBOR   2200            30   30/  3/  4 1027.1R
BURNS HARBOR     2200            30  330/  5/  7 1028.4R
MICHIGAN CITY    2200            30  310/  9/ 10   N/A
$$

ABBREVIATIONS USED IN REMARKS
   TC - TEMPERATURE IN CELSIUS
  WCI - WIND CHILL INDEX
   HX - HEAT INDEX
  VSB - VISIBILITY
$$



USA.gov is the U.S. government's official web portal to all federal, state and local government web resources and services.